Showing default

COSMOS 1565, 15004

Orbit data source: Space-Track

COSMOS 1565, 15004 is a payload satellite owned by GUKOS (CIS) in LEO that was launched on Mon, 28 May 1984 UTC via a KOSMOS 11K65M launch vehicle from the Plesetsk Missile And Space Complex (PKMTR). Payload-class satellites include a variety of spacecraft equipped with specific instruments for various scientific and technological missions. These include communications satellites like Starlink; space stations such as the ISS; scientific satellites like the Hubble; Earth observation satellites from companies like Planet Labs, Umbra, and HawkEye 360; GPS; miniature CubeSats for education and research; and military/defense satellites.

Loading next visibility...
Identifier
15004, 1984-052G
Orbit
LEO
Country
Flag of CISCIS
Related business
Manufacturer
NPO PM
Mission
Spacecraft
Bus & Motor
STRELA-1 11F625, Unknown motor
Mass
60 kg wet, 60 kg dry
Launch date (UTC)
1984-05-28 (42 years ago)
Launch vehicle
KOSMOS 11K65M
Launch site
Plesetsk Missile And Space Complex (PKMTR)
Object type
Payload
Rocket body
Debris
Shape & HBR
Unknown
Radar Cross Section
Medium (>0.1 m² and <1 m²)

Expand to show TLE details & history
Last TLE update: 3 hours ago

TLE from 3 hours ago
0 COSMOS 1565
1 15004U 84052G   26127.19400828 -.00000017  00000-0 -56191-5 0  9996
2 15004  74.0104 160.7009 0044263 286.4480 143.0233 12.55463012922000
Epoch: 2026-05-07T04:39Z
TLE epoch observation values (Epoch: 2026-05-07T04:39:22.315Z)
Latitude
64.51842°
Longitude
-97.43646°
Altitude
1,480.195 km
Speed
7.117 km/s
True Right ascension
13h 09m 48s
True Declination
64° 23' 49"
Sunlit
Object was in daylight at epoch
Visualization orbit readout
Latitude
Unknown
Longitude
Unknown
Altitude
Unknown
Speed
Unknown
Apparent Right ascension
Unknown
Apparent Declination
Unknown
Sunlit
N/A
Visualization observer readout
Local Sidereal Time
15:57:33
Azimuth
Unknown
Elevation
Unknown
Doppler factor
Unknown
Orbital elements
Apogee altitude
1,474.161 km
Perigee altitude
1,404.954 km
Semi-major axis
7,817.695 km
Eccentricity
0.00443
Inclination
74.0104°
RAAN
160.7009°
Arg. of periapsis
286.448°
True anomaly
143.32704°
Mean anomaly
143.0233°
Eccentric anomaly
143.1753°
Mean motion
3.13997 °/min
Orbital period
114.65 mins
BSTAR
-0.0000056191
Loading maneuver chart data...
Computing Atmospheric mass density...
Loading historical data...
Loading historical data...
Loading historical data...
Loading historical data...
Loading historical data...
Loading historical data...
Loading historical data...

Documentation

Showing up to 5 results
|